Location: Unspecified
(48.7670°N, 0.0000°E)
Time: 19:43:10
(UTC+00:00)

Altair - Visible Passes

Search period start: 18 June 2019 00:00
Search period end: 28 June 2019 00:00
Orbit: 1501 x 1683 km, 47.2° (Epoch: 18 June)

Date Brightness Start Highest point End Pass type
(mag) Time Alt. Az. Time Alt. Az. Time Alt. Az.
18 Jun 7.6 00:42:08 10° W 00:52:05 80° S 01:02:15 10° ESE visible
18 Jun 7.8 02:46:53 10° WNW 02:56:24 49° SSW 03:06:00 10° SE visible
18 Jun 7.5 22:12:25 10° WSW 22:22:05 75° SSE 22:32:08 10° E visible
19 Jun 7.5 00:16:57 10° W 00:26:52 81° S 00:37:03 10° ESE visible
19 Jun 7.7 02:21:42 10° WNW 02:31:15 52° SSW 02:40:57 10° SE visible
19 Jun 7.5 21:47:17 10° WSW 21:56:54 73° SSE 22:06:54 10° E visible
19 Jun 7.5 23:51:47 10° W 00:01:40 82° S 00:11:50 10° ESE visible
20 Jun 7.7 01:56:30 10° WNW 02:06:07 55° SSW 02:15:53 10° SE visible
20 Jun 7.6 21:22:11 10° WSW 21:31:44 71° SSE 21:41:41 10° E visible
20 Jun 7.5 23:26:36 10° W 23:36:28 82° S 23:46:37 10° E visible
21 Jun 7.6 01:31:19 10° WNW 01:40:58 57° SSW 01:50:48 10° SE visible
21 Jun 7.6 20:57:05 10° WSW 21:06:34 69° SSE 21:16:27 10° E visible
21 Jun 7.5 23:01:26 10° W 23:11:15 83° S 23:21:23 10° E visible
22 Jun 7.6 01:06:08 10° WNW 01:15:49 60° SSW 01:25:42 10° SE visible
22 Jun 8.4 03:11:33 10° W 03:19:14 26° SW 03:27:00 10° S visible
22 Jun 7.6 20:32:00 10° WSW 20:41:25 66° SSE 20:51:15 10° ENE visible
22 Jun 7.5 22:36:17 10° W 22:46:03 83° S 22:56:11 10° E visible
23 Jun 7.6 00:40:57 10° WNW 00:50:39 62° SSW 01:00:35 10° SE visible
23 Jun 8.3 02:46:13 10° W 02:54:11 28° SW 03:02:13 10° S visible
23 Jun 7.6 22:11:07 10° W 22:20:51 83° S 22:30:57 10° E visible
24 Jun 7.6 00:15:47 10° WNW 00:25:29 65° SSW 00:35:27 10° SE visible
24 Jun 8.2 02:20:55 10° W 02:29:06 30° SW 02:37:26 10° S visible
24 Jun 7.6 21:45:58 10° W 21:55:39 83° S 22:05:43 10° E visible
24 Jun 7.5 23:50:36 10° W 00:00:19 67° SSW 00:10:19 10° ESE visible
25 Jun 8.2 01:55:38 10° WNW 02:04:02 32° SW 02:12:34 10° SSE visible
25 Jun 7.6 21:20:48 10° W 21:30:27 83° S 21:40:29 10° E visible
25 Jun 7.5 23:25:26 10° W 23:35:09 69° SSW 23:45:09 10° ESE visible
26 Jun 8.1 01:30:23 10° WNW 01:38:57 35° SW 01:47:41 10° SSE visible
26 Jun 7.6 20:55:39 10° W 21:05:15 82° S 21:15:16 10° E visible
26 Jun 7.5 23:00:16 10° W 23:09:58 71° SSW 23:19:59 10° ESE visible
27 Jun 8.0 01:05:09 10° WNW 01:13:52 37° SW 01:22:46 10° SSE visible
27 Jun 7.6 20:30:31 10° WSW 20:40:04 81° S 20:50:02 10° E visible
27 Jun 7.5 22:35:07 10° W 22:44:47 73° SSW 22:54:48 10° ESE visible
